Bogota, Colombia

5:18 PM -05 on August 20, 2017 (GMT -0500)
Eldorado International

Weather History for SKBO - October, 2013

Change the Weather History Date:

Tuesday, October 1, 2013

  Actual Average Record
Temperature  
Mean Temperature 54 °F -  
Max Temperature 67 °F 64 °F 69 °F (1997)
Min Temperature 42 °F 46 °F 32 °F (2002)
Degree Days  
Heating Degree Days 10    
Growing Degree Days 4 (Base 50)    
Moisture  
Dew Point 49 °F    
Average Humidity 81    
Maximum Humidity 100    
Minimum Humidity 40    
Precipitation  
Precipitation 0.63 in 0.15 in - ()
Sea Level Pressure  
Sea Level Pressure 30.31 in    
Wind  
Wind Speed 5 mph ()    
Max Wind Speed 18 mph    
Max Gust Speed -    
Visibility 5.9 miles    
Events Fog , Rain , Thunderstorm    
Averages and records for this station are not official NWS values.
T = Trace of Precipitation, MM = Missing Value Source: Averaged Metar Reports

Daily Weather History Graph

Daily Weather History Graph

Search for Another Location

Airport or City:

Trip Planner

Search our weather history database for the weather conditions in past years. The results will help you decide how hot, cold, wet, or windy it might be!

Date:

Astronomy

Oct. 01, 2013 Rise Set
Actual Time 5:43 AM -05 5:48 PM -05
Civil Twilight 5:23 AM -05 6:08 PM -05
Nautical Twilight 4:59 AM -05 6:33 PM -05
Astronomical Twilight 4:34 AM -05 6:57 PM -05
Moon 2:52 AM -05 (10/1) 3:19 PM -05 (10/1)
Length of Visible Light 12h 45m
Length of Day
12h 04m
Waning Crescent, 12% of the Moon is Illuminated
Oct 1
Waning Crescent
Oct 4
New
Oct 11
First Quarter
Oct 18
Full
Oct 26
Last Quarter

Hourly Weather History & Observations

Time (-05) Temp. Windchill Dew Point Humidity Pressure Visibility Wind Dir Wind Speed Gust Speed Precip Events Conditions
12:00 AM 46.4 °F - 46.4 °F 100% 30.36 in 6.2 mi Variable 2.3 mph - N/A   Partly Cloudy
1:00 AM 45 °F - 44 °F 92%  in 7 mi NNW 4.5 mph - - Fog Patches of Fog
1:00 AM 44.6 °F 42.2 °F 42.8 °F 93% 30.33 in 6.2 mi NNW 4.6 mph - N/A Fog Shallow Fog
2:00 AM 44.6 °F - 42.8 °F 93% 30.31 in 5.6 mi Variable 2.3 mph - N/A Fog Fog
3:00 AM 46.4 °F 45.2 °F 44.6 °F 93% 30.30 in 6.2 mi NW 3.5 mph - N/A   Scattered Clouds
4:00 AM 45 °F - 44 °F 96%  in 7 mi NNE 4.5 mph - -   Haze
4:00 AM 44.6 °F 42.2 °F 44.6 °F 100% 30.31 in 6.2 mi NNE 4.6 mph - N/A   Scattered Clouds
5:00 AM 44.6 °F - 42.8 °F 93% 30.31 in 6.2 mi Calm Calm - N/A   Partly Cloudy
5:30 AM 42.8 °F 41.1 °F 42.8 °F 100% 30.32 in 6.2 mi NW 3.5 mph - N/A   Partly Cloudy
6:00 AM 42.8 °F 40.1 °F 42.8 °F 100% 30.33 in 6.2 mi North 4.6 mph - N/A Fog Shallow Fog
7:00 AM 49 °F - 46 °F 83%  in 10 mi NNE 4.5 mph - -   Haze
7:00 AM 48.2 °F - 46.4 °F 93% 30.35 in 6.2 mi NNE 3.5 mph - N/A   Scattered Clouds
8:00 AM 57.2 °F - 48.2 °F 72% 30.37 in 6.2 mi NW 3.5 mph - N/A   Scattered Clouds
9:00 AM 62.6 °F - 50.0 °F 63% 30.39 in 6.2 mi Variable 2.3 mph - N/A   Scattered Clouds
10:00 AM 65 °F - 49 °F 45%  in 11 mi North 2.2 mph - -   Haze
10:00 AM 64.4 °F - 48.2 °F 56% 30.38 in 6.2 mi Variable 2.3 mph - N/A   Mostly Cloudy
11:00 AM 64.4 °F - 46.4 °F 52% 30.35 in 6.2 mi Variable 2.3 mph - N/A   Mostly Cloudy
12:00 PM 66.2 °F - 53.6 °F 64% 30.30 in 6.2 mi West 11.5 mph - N/A   Mostly Cloudy
1:00 PM 67 °F - 48 °F 40%  in 9 mi WNW 6.7 mph - -   Haze
1:00 PM 68.0 °F - 48.2 °F 49% 30.27 in 6.2 mi WNW 6.9 mph - N/A   Scattered Clouds
2:00 PM 64.4 °F - 51.8 °F 64% 30.24 in 6.2 mi West 18.4 mph - N/A   Scattered Clouds
3:00 PM 64.4 °F - 51.8 °F 64% 30.22 in 6.2 mi WSW 13.8 mph - N/A   Scattered Clouds
4:00 PM 62 °F - 51 °F 58%  in 5 mi SW 15.7 mph - - Rain Drizzle
4:00 PM 62.6 °F - 51.8 °F 68% 30.23 in 5.0 mi SW 16.1 mph - N/A   Drizzle
4:40 PM 59.0 °F - 53.6 °F 82% 30.24 in 4.3 mi SW 11.5 mph - N/A Rain , Thunderstorm Light Thunderstorms and Rain
5:00 PM 59.0 °F - 53.6 °F 82% 30.24 in 4.3 mi WSW 9.2 mph - N/A Rain , Thunderstorm Light Thunderstorms and Rain
5:18 PM 57.2 °F - 53.6 °F 88% 30.25 in 1.2 mi Variable 2.3 mph - N/A Rain , Thunderstorm Thunderstorms and Rain
6:00 PM 55.4 °F - 53.6 °F 94% 30.28 in 1.9 mi East 5.8 mph - N/A Rain , Thunderstorm Thunderstorms and Rain
6:30 PM 55.4 °F - 53.6 °F 94% 30.29 in 5.0 mi NNE 5.8 mph - N/A Rain , Thunderstorm Light Thunderstorms and Rain
7:00 PM 54 °F - 52 °F 91%  in 4 mi NE 6.7 mph - - Rain Rain
7:00 PM 53.6 °F - 51.8 °F 94% 30.32 in 3.7 mi NE 6.9 mph - N/A Rain Rain
8:00 PM 53.6 °F - 50.0 °F 88% 30.38 in 4.3 mi ENE 4.6 mph - N/A Rain Rain
9:00 PM 51.8 °F - 50.0 °F 94% 30.38 in 5.0 mi NE 3.5 mph - N/A Rain Rain
10:00 PM 51.8 °F - 51.8 °F 100% 30.37 in 6.2 mi ENE 6.9 mph - N/A   Light Drizzle
11:00 PM 49 °F - 48 °F 97%  in 9 mi NNW 4.5 mph - -   Haze
11:00 PM 51.8 °F - 50.0 °F 94% 30.35 in 6.2 mi ENE 3.5 mph - N/A   Scattered Clouds